パンスターズ彗星

C/2025 B1 ( PanSTARRS )

English version
Home page
Updated on March 26, 2025

---------------------------------------------------------------------

・ プロフィール

発見日 2025年1月20日
発見光度 20.7等
発見者 Pan-STARRS 2 telescope (Haleakala)

・ 写真集

・ 軌道要素

Epoch 2025 May 5.0 TT = JDT 2460800.5
T 2025 June 26.87087 TT                                 Pike
q   3.5291671            (2000.0)            P               Q
z  -0.0004315      Peri.   23.56508     -0.50387073     -0.59910810
 +/-0.0000351      Node   102.84612     +0.65564386     -0.73426118
e   1.0015228      Incl.   39.65885     +0.56235702     +0.31926479
From 48 observations 2024 Dec. 24-2025 Feb. 19, mean residual 0".5.

・ 光度変化

        m1 = 12.0 + 5 logΔ + 10.0 log r

---------------------------------------------------------------------

軌道要素はM.P.E.C. 2025-D44に掲載されたものです。
光度グラフはComet for Windowsで作成したものです。

---------------------------------------------------------------------

Copyright(C) Seiichi Yoshida (comet@aerith.net). All rights reserved.